カタログに戻る

FENGYUN 1C DEB

運用中SSO
NORAD 30124·DEBRIS·🇨🇳 China

打ち上げ May 10, 1999 から Taiyuan Satellite Launch Center

Loading…

次のパス (今後24時間)

TLE

最新Source: Space-Track

元期: Sep 14, 2026, 22:51 UTC

1 30124U 99025SD  26257.95227150  .00000963  00000-0  47214-3 0  9997
2 30124  99.1070 322.7639 0141370  46.5621 133.1423 14.15128933  8181

AllMySatでFENGYUN 1C DEBをリアルタイム追跡

Download on the App Store